Location: Bordes
(43.2006°N, 0.2247°E)
Time: 02:04:40
(UTC+00:00)

Daily predictions for brighter satellites

Satellite Brightness Start Highest point End
(mag) Time Altitude Azimuth Time Altitude Azimuth Time Altitude Azimuth
Lacrosse 5 4.4 02:40:09 17° ENE 02:40:09 17° ENE 02:41:35 10° E
CZ-2C R/B 4.4 02:59:05 10° NE 03:02:02 23° ENE 03:02:02 23° ENE
ATLAS 5 CENTAUR R/B 4.3 03:19:17 12° ESE 03:19:17 12° ESE 03:20:31 10° E
S3M 4.2 03:21:13 66° ENE 03:21:13 66° ENE 03:26:59 10° NNE
ARIANE 5 R/B 4.0 03:20:59 10° N 03:23:22 28° N 03:23:22 28° N
Cosmos 1745 Rocket 4.1 03:20:12 10° N 03:26:32 76° E 03:26:32 76° E
USA 267 3.6 03:29:27 10° NE 03:35:44 51° NNW 03:35:57 51° NW
NOSS 3-2 (A) 4.1 03:35:08 10° NW 03:42:46 80° NE 03:51:22 10° SE
Cosmos 2344 3.4 03:46:42 63° WSW 03:48:00 80° NW 03:55:53 10° NE
Cosmos 1833 4.1 03:48:29 80° N 03:48:29 80° N 03:53:51 10° NNE
Cosmos 1386 Rocket 4.3 03:47:10 10° NNW 03:53:31 72° W 03:53:42 71° WSW
CENTAUR R/B 3.5 03:45:40 10° NNW 03:53:49 69° NE 04:02:41 10° SE
Cosmos 2251 Rocket 3.5 03:53:53 72° SSE 03:54:17 77° ESE 03:59:41 10° NNE
ISS -1.5 04:00:41 24° NE 04:00:41 24° NE 04:02:50 10° ENE
H-2A R/B 4.5 03:52:49 34° SW 04:00:39 48° S 04:07:22 10° ESE
Cosmos 2360 Rocket 3.7 04:04:23 22° S 04:04:23 22° S 04:06:16 10° S
ADEOS II 4.5 03:58:23 10° NNW 03:58:26 10° NNW 03:58:26 10° NNW
IDEFIX/ARIANE 42P 4.3 03:58:31 10° N 04:00:31 20° NNW 04:00:31 20° NNW
ALOS 3.1 03:59:43 10° NNE 04:04:17 49° E 04:07:02 22° SSE
PAYLOAD A 4.0 03:59:13 10° N 04:04:34 78° WNW 04:05:04 71° SW
Cosmos 2333 4.2 04:02:33 10° NNW 04:08:23 84° ENE 04:14:10 10° SSE
USA 234 3.2 04:02:54 10° SE 04:09:21 63° SW 04:11:34 42° WNW
CZ-4C R/B 2.4 04:10:13 38° S 04:11:50 56° ESE 04:17:23 10° NE
Cosmos 883 Rocket 4.3 04:11:11 39° SSW 04:13:34 75° W 04:19:44 10° N
USA 276 3.8 04:16:02 31° NE 04:16:02 31° NE 04:18:00 10° NE
PSLV R/B 3.4 04:12:32 10° NNE 04:16:56 86° WNW 04:17:21 73° SSW
NOSS 3-4 (A) 3.8 04:16:30 25° S 04:19:49 60° ESE 04:25:53 10° NE
NOSS 3-4 (C) 3.8 04:16:34 25° S 04:19:55 59° ESE 04:25:59 10° NE
Lacrosse 5 1.7 04:19:24 50° NW 04:20:44 82° SW 04:25:46 10° SE
NOSS 3-2 (C) 4.1 04:17:10 10° NW 04:24:50 88° ENE 04:33:29 10° SE
GPS 2-04 Rocket1 4.1 04:26:32 24° SSE 04:26:32 24° SSE 04:29:06 10° ESE
Cosmos 2333 Rocket 2.1 04:23:51 10° NNW 04:29:39 83° WSW 04:35:25 10° SSE
Cosmos 1437 Rocket 4.1 04:29:09 10° SSE 04:33:00 42° E 04:36:48 10° NNE
Cosmos 1484 Rocket 2.6 04:30:08 10° NNE 04:33:51 82° E 04:35:27 33° S
Cosmos 1805 Rocket 3.5 04:30:01 10° NNW 04:34:26 61° W 04:38:48 10° S
ATLAS 2AS CENTAUR R/B 3.6 04:27:17 10° SSW 04:34:56 57° ESE 04:42:35 10° NE
Landsat 5 3.1 04:31:50 10° S 04:35:37 69° WSW 04:39:32 10° NNW
SJ-6F 4.4 04:33:13 10° NNE 04:37:25 90° NW 04:40:19 20° SSW
Cosmos 2315 Rocket 4.0 04:34:41 20° SSW 04:39:00 59° W 04:45:08 10° N
CZ-4B R/B 3.9 04:37:32 10° ESE 04:39:58 22° ENE 04:42:24 10° NNE
Cosmos 2297 Rocket 4.1 04:35:52 10° SSE 04:40:40 30° ESE 04:45:30 10° NE
COSMO-SKYMED 1 4.1 04:36:52 10° SE 04:40:53 39° ENE 04:44:56 10° N
CZ-2C R/B 2.8 04:36:54 10° N 04:41:13 36° WNW 04:41:25 36° WNW
Cosmos 1782 3.7 04:39:10 10° SSE 04:42:57 49° E 04:46:48 10° NNE
Cosmos 2219 Rocket 2.1 04:38:36 10° NNW 04:44:16 74° WSW 04:49:55 10° SSE
Cosmos 1606 3.9 04:47:57 26° NW 04:47:57 26° NW 04:50:26 10° NNW
Cosmos 1140 Rocket 3.7 04:43:09 10° SSW 04:48:20 74° ESE 04:53:31 10° NNE
CBERS 1 LM4 rocket 4.2 04:44:13 10° NNE 04:49:00 78° WNW 04:53:43 10° SSW
Sich 1 3.1 04:46:45 10° NNW 04:51:04 52° W 04:55:18 10° S
Meteor 1-26 Rocket 4.5 04:45:54 10° S 04:51:34 75° E 04:57:29 10° NNE
METEOR-M 4.0 04:49:42 10° N 04:55:03 73° WNW 05:00:21 10° SSW
Cosmos 1666 Rocket 3.4 04:53:52 10° NNW 04:58:14 74° W 05:02:37 10° S
Cosmos 2074 Rocket 4.0 04:52:55 10° N 04:59:09 86° E 05:05:21 10° S
MOS 1 Rocket 3.5 04:55:36 10° SSE 04:59:56 70° ENE 05:04:34 10° N
Cosmos 1023 Rocket 4.4 04:54:51 10° SSW 05:00:03 85° WNW 05:05:15 10° NNE
SeaSat 1 2.8 04:55:37 10° SE 05:00:29 66° ENE 05:05:23 10° NNW
COSMOS 2428 2.7 04:55:16 10° NNW 05:00:56 65° WSW 05:06:34 10° S
BREEZE M DEB (TANK) 3.3 04:59:34 20° NW 05:01:21 47° NNE 05:08:01 10° E
ATLAS 5 CENTAUR R/B 1.4 05:00:50 26° SW 05:02:55 63° NW 05:07:17 10° NNE
CZ-4C R/B 4.5 05:04:28 20° NW 05:04:28 20° NW 05:05:59 10° NW
BREEZE-M DEB (TANK) 3.8 05:00:37 20° WNW 05:02:56 32° NNW 05:05:21 10° NE
USA 238 DEB 4.2 04:57:57 10° NW 05:04:48 44° WSW 05:11:53 10° S
USA 238 4.2 04:58:03 10° NW 05:04:55 44° WSW 05:12:00 10° S
Cosmos 2154 Rocket 4.5 05:00:23 10° N 05:06:36 65° E 05:12:49 10° SSE
BREEZE-M DEB (TANK) 4.0 05:08:11 17° SW 05:08:24 17° SSW 05:11:10 10° SSE
ATLAS 3B R/B 3.8 05:01:59 10° NNW 05:08:41 46° NE 05:15:38 10° ESE
CZ-4B R/B 3.5 05:05:59 10° N 05:09:40 77° WNW 05:13:17 10° SSW
ADEOS 3.5 05:05:06 10° NNE 05:10:21 80° WNW 05:15:34 10° SSW
Cosmos 1602 3.6 05:08:03 10° NNW 05:11:58 68° W 05:15:49 10° S
FENGYUN 3A 4.2 05:11:08 10° N 05:16:04 36° WNW 05:20:59 10° SW
H-2A R/B 2.4 05:13:19 10° S 05:17:17 39° W 05:21:13 10° NNW
Cosmos 1151 Rocket 3.1 05:14:28 10° SSW 05:18:40 52° W 05:22:52 10° N
Meteor 1-25 Rocket 4.4 05:14:14 10° NNW 05:19:33 48° W 05:24:50 10° SSW
Cosmos 909 Rocket 4.5 05:14:58 15° WSW 05:20:11 44° NW 05:26:12 10° NNE
Cosmos 2219 3.8 05:14:53 10° S 05:20:26 59° ESE 05:25:59 10° NNE
Cosmos 2322 4.5 05:16:19 10° NW 05:21:08 29° WSW 05:25:54 10° SSW
NOSS 0 Rocket 3.9 05:18:39 10° NNW 05:24:49 75° WSW 05:30:59 10° SSE
Cosmos 2184 Rocket 4.0 05:19:49 10° NNW 05:26:04 62° W 05:32:20 10° S
SKYMED 2 3.5 05:24:33 10° S 05:28:51 64° W 05:33:11 10° NNW
Cosmos 1633 Rocket 3.4 05:25:09 10° NNW 05:29:16 40° W 05:33:21 10° SSW
CZ-2C R/B 4.1 05:29:05 10° SSE 05:30:12 11° SSE 05:31:20 10° SE
USA-17 4.4 05:27:23 10° SW 05:31:22 77° NW 05:34:35 10° NNE
Cosmos 1242 Rocket 2.6 05:30:24 10° S 05:33:49 76° E 05:37:19 10° NNE
H-2A R/B 2.8 05:30:55 10° NNE 05:34:50 90° SE 05:38:42 10° SSW
ISS -3.8 05:33:40 10° WNW 05:37:02 76° SW 05:40:23 10° SE
Milstar 3 Cent rocket 4.0 05:35:17 10° SW 05:37:31 13° S 05:39:45 10° SSE
Cosmos 1812 2.6 05:35:10 10° S 05:39:00 85° W 05:42:52 10° N
CZ-2C R/B 3.9 05:35:41 10° SE 05:41:02 47° ENE 05:46:23 10° N
ALOS 3.7 05:38:03 10° NNW 05:41:19 19° WNW 05:44:34 10° WSW
CENTAUR R/B 3.8 05:36:58 10° NW 05:44:18 35° WSW 05:52:02 10° S
BREEZE-M DEB (TANK) 4.3 05:43:26 10° NNW 05:44:25 12° NNE 05:45:33 10° NE
Meteor 1-31 Rocket 3.7 05:42:56 10° N 05:46:17 28° WNW 05:49:34 10° SW
Cosmos 1954 Rocket 4.0 05:41:50 10° SSW 05:47:03 64° WNW 05:52:16 10° NNE
Meteor 1-14 Rocket 4.3 05:41:45 10° NNW 05:47:19 57° W 05:52:58 10° S
RESURS DK-1 2.3 05:43:23 10° SSW 05:47:30 87° WNW 05:51:39 10° NNE
SAR-Lupe-4 4.1 05:46:14 10° SSE 05:49:45 65° ENE 05:53:19 10° N
USA 276 3.8 05:48:52 10° WNW 05:51:32 23° N 05:54:12 10° NE
Cosmos 2237 Rocket 2.2 05:46:28 10° NNW 05:52:07 67° WSW 05:57:42 10° SSE
Cosmos 407 Rocket 4.4 05:48:44 10° WSW 05:53:07 27° WNW 05:57:30 10° N
Timation 2 Rocket 4.2 05:51:08 10° SSW 05:58:01 79° WNW 06:04:48 10° NNE
